Wind_Speed
16 14 12 11 10 9 7 7 7 6 5 4 3 2 2 3 5 6 8 10 12 13 15 17 19 21 23 25 28 31 33 35
18 16 15 16 16 13 11 11 10 8 7 5 3 3 5 7 10 12 14 15 16 18 20 22 23 26 29 31 34 35 37 38
20 21 22 21 18 15 14 13 10 9 7 4 4 5 8 10 13 15 18 20 21 22 24 27 30 33 36 39 42 44 45 44
23 25 24 23 20 17 16 14 11 10 8 7 7 8 11 15 18 21 23 26 27 29 30 32 35 37 40 43 46 47 48 48
25 25 26 25 22 20 18 15 14 13 12 11 10 12 15 18 22 24 26 29 30 32 33 36 37 40 43 45 47 47 47 47
23 24 25 26 25 22 18 17 17 17 17 16 16 16 18 21 24 26 29 31 32 33 35 36 38 41 43 44 45 47 48 48
17 18 23 26 26 23 20 19 20 21 22 22 20 19 21 24 26 29 31 33 33 35 36 37 40 41 41 43 46 47 48 50
16 16 17 19 21 22 19 21 23 24 26 26 25 24 26 27 28 30 33 34 35 36 36 38 40 40 41 43 45 47 47 47
11 10 11 13 17 20 23 25 28 29 29 29 28 28 28 29 31 33 34 34 36 35 37 39 40 40 42 43 44 44 44 42
11 11 10 10 13 19 26 30 32 32 31 31 30 30 30 32 34 34 34 35 36 36 38 40 40 39 41 42 42 43 42 39
11 12 14 19 22 23 25 26 28 30 31 31 30 30 31 34 34 33 34 36 36 36 37 38 38 37 38 38 37 39 39 36
14 20 20 20 20 22 24 27 26 28 29 30 29 30 31 34 34 34 34 35 35 37 37 37 36 36 37 36 30 32 35 37
19 23 22 22 22 24 26 26 28 30 30 29 28 29 33 33 33 33 33 34 34 36 37 37 36 35 36 33 25 27 32 38
24 25 26 25 24 27 28 29 30 31 30 29 29 31 32 32 33 32 31 31 33 35 36 37 35 34 34 31 31 29 31 35
28 29 29 27 28 31 31 31 32 32 30 29 31 31 31 31 31 31 29 29 30 33 34 35 35 34 32 33 36 36 35 39
29 29 28 27 29 32 34 33 32 31 30 30 31 31 30 29 29 28 26 27 29 31 31 32 32 30 27 29 32 34 35 36
25 25 27 28 30 32 33 32 32 32 31 31 31 29 29 29 28 24 24 23 25 26 22 23 24 23 24 25 27 28 30 31
24 25 27 28 29 31 30 30 31 32 31 31 29 28 28 27 27 29 23 20 22 24 22 21 21 20 20 22 23 25 26 25
26 26 26 26 25 27 28 30 30 30 31 29 28 28 27 26 26 26 27 28 21 18 22 19 21 20 18 20 23 23 23 25
23 24 25 25 24 26 28 29 29 29 27 27 28 27 26 24 24 24 25 25 24 19 17 18 20 18 17 19 21 23 23 25
Wind_Direction
201 205 207 212 219 224 231 229 218 210 209 215 230 250 301 323 330 331 330 328 327 324 324 324 325 324 324 324 324 322 322 321
208 215 222 227 227 228 227 222 219 216 217 224 249 308 336 341 339 337 334 331 327 325 324 324 324 324 324 325 323 321 319 315
218 223 230 234 231 232 229 226 226 226 233 254 287 319 331 332 331 330 328 326 323 321 321 322 324 324 324 323 322 320 318 315
227 234 239 239 236 236 235 232 234 236 240 253 282 302 316 322 324 324 324 324 322 321 321 322 322 322 321 320 319 317 316 314
238 245 247 245 241 238 234 235 236 238 244 257 276 295 308 316 320 320 320 320 318 317 318 319 320 319 319 318 316 314 312 311
252 258 255 245 238 234 235 237 239 242 249 260 271 286 301 310 314 314 314 314 313 313 314 315 316 317 318 316 314 312 311 309
251 256 254 244 238 237 238 242 242 247 253 259 268 280 292 300 307 310 310 309 309 311 312 314 315 317 317 314 313 312 311 310
244 250 252 242 238 238 245 244 246 250 255 260 265 273 283 290 301 306 306 306 309 310 311 313 315 317 315 314 313 312 311 310
240 246 243 237 241 247 251 252 254 255 257 260 265 271 278 288 299 303 303 305 308 308 311 314 317 317 315 314 314 312 311 312
244 238 229 237 257 265 265 265 261 260 260 262 263 269 280 289 295 298 299 303 306 309 313 315 316 316 316 317 315 313 314 315
227 235 256 271 275 272 269 270 271 268 262 260 262 272 283 288 293 295 298 303 306 308 311 313 316 319 317 318 317 314 316 319
250 283 280 275 278 275 271 272 267 260 258 259 265 276 285 289 291 293 298 301 304 309 312 314 316 318 319 320 317 316 319 315
281 285 273 271 278 278 273 271 262 258 259 262 272 282 287 286 289 292 298 301 305 307 311 314 317 320 322 327 314 311 308 310
279 274 270 266 276 280 274 268 262 260 261 267 277 283 284 286 287 292 297 301 305 308 312 315 318 322 329 329 329 315 312 312
271 267 269 263 275 277 264 263 262 261 264 271 278 280 281 282 285 292 298 302 306 309 312 316 323 326 326 331 327 318 319 323
269 271 267 267 276 270 261 260 263 265 270 276 280 280 280 281 287 292 298 302 308 312 315 315 313 322 321 317 318 321 316 307
266 267 264 269 269 264 260 262 265 269 273 278 280 281 281 284 287 291 298 304 305 302 296 300 304 314 317 322 319 319 318 322
270 267 266 266 264 259 260 264 267 271 274 279 280 280 281 285 291 298 299 300 301 299 300 306 310 316 323 321 324 330 331 332
271 266 267 263 261 260 262 266 269 273 276 278 279 279 282 285 290 296 301 305 305 297 304 313 312 319 324 326 328 328 335 344
262 261 262 265 266 269 271 272 273 274 276 276 275 276 279 283 288 293 296 299 304 306 301 306 306 316 325 325 327 333 340 344
Height
1534 1537 1537 1538 1539 1538 1538 1538 1537 1538 1539 1540 1540 1540 1541 1541 1541 1541 1542 1541 1540 1539 1537 1536 1533 1532 1530 1527 1525 1521 1518 1516
1530 1533 1533 1534 1534 1535 1536 1537 1537 1536 1536 1537 1538 1539 1538 1538 1539 1538 1538 1537 1536 1534 1533 1530 1528 1525 1522 1519 1517 1515 1513 1512
1526 1527 1528 1529 1530 1531 1532 1534 1534 1534 1534 1534 1535 1535 1536 1536 1536 1535 1534 1532 1530 1528 1526 1523 1520 1517 1513 1510 1508 1505 1503 1501
1522 1523 1524 1525 1528 1529 1529 1530 1531 1531 1532 1532 1533 1533 1532 1532 1532 1530 1528 1527 1524 1521 1519 1517 1513 1510 1506 1503 1500 1497 1493 1489
1515 1518 1519 1521 1523 1525 1526 1527 1528 1529 1529 1529 1529 1530 1529 1528 1527 1526 1524 1522 1519 1516 1513 1510 1507 1503 1499 1496 1492 1488 1485 1481
1510 1511 1514 1515 1518 1519 1520 1522 1523 1524 1524 1525 1525 1525 1525 1524 1523 1522 1520 1517 1514 1511 1508 1505 1501 1497 1493 1488 1484 1479 1474 1470
1504 1505 1506 1508 1511 1513 1516 1518 1518 1519 1519 1520 1520 1520 1520 1520 1518 1517 1514 1511 1509 1506 1502 1499 1495 1491 1486 1481 1475 1470 1463 1457
1500 1500 1501 1503 1507 1509 1510 1512 1513 1512 1513 1514 1514 1515 1514 1514 1512 1510 1508 1505 1502 1499 1496 1492 1487 1483 1478 1473 1466 1460 1453 1447
1495 1496 1497 1499 1503 1505 1507 1506 1506 1506 1507 1508 1508 1508 1508 1507 1505 1503 1501 1498 1495 1492 1488 1483 1479 1475 1469 1463 1457 1450 1444 1438
1491 1493 1493 1496 1498 1499 1501 1500 1499 1500 1501 1501 1502 1502 1501 1500 1499 1497 1494 1491 1488 1484 1479 1475 1471 1466 1460 1454 1447 1440 1434 1429
1487 1489 1492 1493 1492 1492 1493 1493 1493 1493 1494 1495 1495 1495 1495 1493 1491 1489 1486 1483 1479 1476 1472 1467 1462 1457 1452 1445 1438 1431 1426 1423
1483 1485 1485 1486 1486 1486 1486 1486 1487 1487 1487 1488 1489 1488 1488 1486 1484 1481 1479 1475 1472 1467 1463 1459 1455 1449 1443 1437 1432 1426 1419 1416
1476 1477 1479 1479 1479 1479 1479 1479 1479 1480 1481 1482 1482 1481 1480 1478 1476 1474 1471 1467 1463 1458 1454 1450 1446 1441 1435 1429 1426 1423 1417 1410
1470 1471 1472 1472 1472 1472 1472 1472 1473 1473 1474 1474 1474 1473 1472 1470 1469 1466 1463 1459 1455 1450 1445 1440 1437 1433 1427 1423 1419 1416 1410 1405
1463 1463 1464 1465 1465 1465 1465 1465 1466 1466 1467 1467 1466 1465 1464 1462 1461 1458 1455 1451 1447 1442 1437 1432 1427 1424 1420 1415 1411 1407 1402 1396
1455 1455 1456 1457 1457 1457 1457 1458 1458 1459 1459 1459 1458 1457 1456 1455 1453 1450 1448 1444 1439 1434 1429 1425 1421 1419 1417 1413 1407 1402 1397 1388
1446 1447 1448 1449 1449 1449 1450 1451 1451 1450 1450 1450 1449 1448 1447 1445 1444 1443 1439 1436 1433 1430 1426 1422 1417 1414 1412 1407 1402 1396 1386 1378
1438 1439 1440 1441 1441 1441 1442 1443 1442 1443 1443 1442 1440 1440 1439 1437 1434 1432 1432 1430 1427 1423 1419 1415 1411 1408 1405 1401 1395 1387 1382 1375
1430 1431 1431 1432 1433 1434 1434 1434 1434 1435 1435 1434 1433 1432 1431 1429 1427 1425 1422 1419 1420 1418 1411 1408 1404 1401 1398 1393 1387 1384 1378 1371
1421 1422 1424 1425 1426 1426 1426 1426 1426 1426 1426 1426 1425 1424 1423 1421 1419 1418 1415 1413 1410 1409 1407 1403 1399 1396 1392 1388 1383 1378 1373 1367